Location: Ladirat
(44.8151°N, 1.9702°E)
Time: 10:32:24
(UTC+00:00)

Cosmos 1536 - Pass Details

Date: 15 May 2026
Orbit: 482 x 500 km, 82.5° (Epoch: 6 June)

Event Time Altitude Azimuth Distance (km) Brightness Sun altitude
Rises 23:07:02 0° 340° (NNW) 2,570 7.6 -25.4°
Reaches altitude 10° 23:09:21 10° 328° (NNW) 1,686 6.2 -25.5°
Enters shadow 23:11:46 25° 290° (WNW) 1,027 4.4 -25.6°
